EZS63KJ LSGG-LIPZ

Flight info

Callsign EZS63KJ
Flight time 0h 54m
Altitude 35000
Route SOSAL N871 KORED DCT BERSU DCT RESIA DCT ADOSA L612 ALBET
Aircraft A320/M-SDE3FGHIRWY/LB1

Departure

Time 2026-05-07 12:57
Airport Geneva International Airport (LSGG)

Arrival

Time 2026-05-07 13:51
Airport Venice Marco Polo Airport (LIPZ)
Time Latitude Longitude Altitude Speed Heading
2026-05-07 12:23 46.23130 6.10701 1393 ft 0 kts 135°
2026-05-07 12:48 46.23140 6.10688 1406 ft 4 kts 144°
2026-05-07 12:48 46.23163 6.10674 1399 ft 4 kts 184°
2026-05-07 12:49 46.23184 6.10685 1400 ft 2 kts 225°
2026-05-07 12:49 46.23197 6.10704 1401 ft 0 kts 225°
2026-05-07 12:52 46.23170 6.10664 1393 ft 11 kts 226°
2026-05-07 12:53 46.23120 6.10589 1399 ft 10 kts 225°
2026-05-07 12:53 46.23076 6.10525 1397 ft 8 kts 225°
2026-05-07 12:53 46.23038 6.10470 1399 ft 7 kts 225°
2026-05-07 12:53 46.23003 6.10418 1396 ft 11 kts 226°
2026-05-07 12:54 46.22971 6.10288 1401 ft 12 kts 322°
2026-05-07 12:54 46.23025 6.10205 1398 ft 10 kts 316°
2026-05-07 12:54 46.23034 6.10095 1397 ft 20 kts 229°
2026-05-07 12:54 46.22927 6.09941 1400 ft 22 kts 226°
2026-05-07 12:55 46.22816 6.09775 1398 ft 24 kts 225°
2026-05-07 12:55 46.22697 6.09601 1399 ft 25 kts 225°
2026-05-07 12:55 46.22571 6.09420 1399 ft 25 kts 232°
2026-05-07 12:55 46.22550 6.09209 1415 ft 18 kts 284°
2026-05-07 12:56 46.22625 6.09166 1419 ft 13 kts 37°
2026-05-07 12:56 46.22647 6.09197 1416 ft 0 kts 44°
2026-05-07 12:56 46.22648 6.09197 1416 ft 1 kts 44°
2026-05-07 12:56 46.22740 6.09331 1417 ft 51 kts 45°
2026-05-07 12:57 46.23155 6.09940 1410 ft 117 kts 45°
2026-05-07 12:57 46.23852 6.10968 1405 ft 166 kts 45°
2026-05-07 12:57 46.24660 6.12158 2079 ft 164 kts 44°
2026-05-07 12:57 46.25469 6.13338 2841 ft 170 kts 41°
2026-05-07 12:58 46.26294 6.14623 3571 ft 179 kts 47°
2026-05-07 12:58 46.27179 6.16025 4097 ft 199 kts 43°
2026-05-07 12:58 46.28189 6.17520 4629 ft 219 kts 43°
2026-05-07 12:58 46.29328 6.19158 5062 ft 243 kts 43°
2026-05-07 12:59 46.30589 6.20969 5487 ft 267 kts 44°
2026-05-07 12:59 46.31928 6.22900 6234 ft 276 kts 44°
2026-05-07 12:59 46.33295 6.24886 7042 ft 282 kts 45°
2026-05-07 12:59 46.34685 6.26918 7885 ft 286 kts 45°
2026-05-07 13:00 46.36041 6.29041 8744 ft 290 kts 53°
2026-05-07 13:00 46.37062 6.31574 9593 ft 293 kts 68°
2026-05-07 13:00 46.37690 6.34400 10310 ft 301 kts 75°
2026-05-07 13:00 46.38290 6.37431 10583 ft 325 kts 75°
2026-05-07 13:01 46.38942 6.40690 10837 ft 347 kts 75°
2026-05-07 13:01 46.39631 6.44106 11376 ft 358 kts 74°
2026-05-07 13:01 46.40334 6.47593 12067 ft 363 kts 74°
2026-05-07 13:01 46.41042 6.51118 12786 ft 368 kts 74°
2026-05-07 13:02 46.41760 6.54703 13567 ft 372 kts 74°
2026-05-07 13:02 46.42484 6.58332 14301 ft 377 kts 74°
2026-05-07 13:02 46.43215 6.62007 14994 ft 381 kts 74°
2026-05-07 13:02 46.44019 6.65690 15635 ft 385 kts 68°
2026-05-07 13:03 46.45222 6.69168 16258 ft 389 kts 58°
2026-05-07 13:03 46.46817 6.72293 16877 ft 392 kts 50°
2026-05-07 13:03 46.48570 6.75408 17501 ft 395 kts 50°
2026-05-07 13:03 46.50287 6.78474 18104 ft 398 kts 50°
2026-05-07 13:04 46.52060 6.81659 18663 ft 402 kts 50°
2026-05-07 13:04 46.53797 6.84791 19182 ft 405 kts 50°
2026-05-07 13:04 46.55567 6.87990 19705 ft 408 kts 50°
2026-05-07 13:04 46.57347 6.91205 20258 ft 409 kts 50°
2026-05-07 13:05 46.59142 6.94438 20789 ft 412 kts 50°
2026-05-07 13:05 46.60948 6.97684 21299 ft 415 kts 50°
2026-05-07 13:05 46.62773 7.00963 21805 ft 418 kts 50°
2026-05-07 13:05 46.64606 7.04265 22283 ft 421 kts 50°
2026-05-07 13:06 46.66452 7.07593 22779 ft 424 kts 50°
2026-05-07 13:06 46.68306 7.10943 23248 ft 427 kts 50°
2026-05-07 13:06 46.70175 7.14324 23680 ft 429 kts 50°
2026-05-07 13:06 46.72054 7.17723 24082 ft 432 kts 50°
2026-05-07 13:07 46.73943 7.21149 24469 ft 435 kts 50°
2026-05-07 13:07 46.75841 7.24602 24839 ft 437 kts 50°
2026-05-07 13:07 46.77746 7.28075 25208 ft 439 kts 50°
2026-05-07 13:07 46.79657 7.31563 25580 ft 442 kts 50°
2026-05-07 13:08 46.81581 7.35078 25946 ft 444 kts 50°
2026-05-07 13:08 46.83516 7.38608 26327 ft 446 kts 50°
2026-05-07 13:08 46.85461 7.42157 26691 ft 448 kts 50°
2026-05-07 13:08 46.87414 7.45721 27053 ft 451 kts 50°
2026-05-07 13:09 46.89375 7.49309 27404 ft 453 kts 50°
2026-05-07 13:09 46.91344 7.52928 27761 ft 455 kts 50°
2026-05-07 13:09 46.93316 7.56564 28115 ft 457 kts 50°
2026-05-07 13:09 46.95294 7.60214 28473 ft 459 kts 50°
2026-05-07 13:10 46.97280 7.63882 28806 ft 461 kts 50°
2026-05-07 13:10 46.99276 7.67571 29116 ft 463 kts 50°
2026-05-07 13:10 47.01277 7.71279 29427 ft 464 kts 50°
2026-05-07 13:10 47.03281 7.74997 29731 ft 466 kts 50°
2026-05-07 13:11 47.05295 7.78734 30075 ft 467 kts 50°
2026-05-07 13:11 47.06659 7.81267 30316 ft 467 kts 50°
2026-05-07 13:11 47.09007 7.86542 30723 ft 469 kts 64°
2026-05-07 13:11 47.10151 7.91020 31014 ft 471 kts 75°
2026-05-07 13:12 47.10719 7.95753 31296 ft 472 kts 85°
2026-05-07 13:12 47.10691 8.00564 31595 ft 472 kts 97°
2026-05-07 13:12 47.10055 8.05284 31879 ft 472 kts 108°
2026-05-07 13:12 47.08862 8.09763 32138 ft 472 kts 115°
2026-05-07 13:13 47.07527 8.14173 32407 ft 473 kts 115°
2026-05-07 13:13 47.06185 8.18595 32701 ft 474 kts 115°
2026-05-07 13:13 47.04842 8.23016 32987 ft 475 kts 115°
2026-05-07 13:13 47.03495 8.27451 33262 ft 476 kts 115°
2026-05-07 13:14 47.02149 8.31889 33541 ft 478 kts 115°
2026-05-07 13:14 47.01253 8.34842 33760 ft 478 kts 115°
2026-05-07 13:14 46.99899 8.39294 34037 ft 479 kts 115°
2026-05-07 13:14 46.98539 8.43754 34254 ft 480 kts 116°
2026-05-07 13:15 46.97173 8.48211 34519 ft 480 kts 116°
2026-05-07 13:15 46.95805 8.52667 34805 ft 479 kts 116°
2026-05-07 13:15 46.94437 8.57118 34988 ft 479 kts 116°
2026-05-07 13:15 46.93059 8.61593 35034 ft 480 kts 116°
2026-05-07 13:16 46.90319 8.70463 35028 ft 480 kts 116°
2026-05-07 13:16 46.87542 8.79420 35020 ft 480 kts 116°
2026-05-07 13:17 46.84804 8.88237 35015 ft 480 kts 116°
2026-05-07 13:17 46.82040 8.97108 35013 ft 480 kts 117°
2026-05-07 13:18 46.79240 9.06045 35004 ft 481 kts 117°
2026-05-07 13:18 46.76452 9.14908 34994 ft 481 kts 117°
2026-05-07 13:19 46.73664 9.23776 34995 ft 481 kts 117°
2026-05-07 13:19 46.70871 9.32641 34995 ft 481 kts 117°
2026-05-07 13:20 46.68063 9.41486 34986 ft 481 kts 117°
2026-05-07 13:20 46.65246 9.50334 34995 ft 481 kts 117°
2026-05-07 13:21 46.62427 9.59159 35001 ft 481 kts 117°
2026-05-07 13:21 46.59587 9.67992 35009 ft 482 kts 117°
2026-05-07 13:22 46.56765 9.76755 35031 ft 482 kts 117°
2026-05-07 13:22 46.53920 9.85571 34994 ft 482 kts 118°
2026-05-07 13:23 46.51068 9.94379 35015 ft 483 kts 118°
2026-05-07 13:23 46.47882 10.02902 35009 ft 478 kts 130°
2026-05-07 13:24 46.43330 10.09767 34980 ft 469 kts 145°
2026-05-07 13:24 46.38289 10.15779 34960 ft 470 kts 145°
2026-05-07 13:25 46.33243 10.21797 34970 ft 470 kts 145°
2026-05-07 13:25 46.28197 10.27832 34981 ft 471 kts 145°
2026-05-07 13:26 46.23146 10.33846 34982 ft 470 kts 145°
2026-05-07 13:26 46.18096 10.39843 34985 ft 470 kts 145°
2026-05-07 13:27 46.13044 10.45820 34977 ft 469 kts 145°
2026-05-07 13:27 46.08004 10.51780 34976 ft 468 kts 145°
2026-05-07 13:28 46.02968 10.57719 34961 ft 468 kts 146°
2026-05-07 13:28 45.97927 10.63644 34958 ft 468 kts 146°
2026-05-07 13:29 45.92875 10.69563 34963 ft 469 kts 146°
2026-05-07 13:29 45.87819 10.75480 34949 ft 469 kts 146°
2026-05-07 13:30 45.82742 10.81399 34550 ft 476 kts 147°
2026-05-07 13:30 45.80164 10.84394 33831 ft 477 kts 147°
2026-05-07 13:30 45.77591 10.87387 33008 ft 477 kts 147°
2026-05-07 13:31 45.75010 10.90387 32229 ft 477 kts 147°
2026-05-07 13:31 45.72430 10.93378 31370 ft 479 kts 147°
2026-05-07 13:31 45.69829 10.96386 30382 ft 484 kts 147°
2026-05-07 13:31 45.67198 10.99426 29288 ft 487 kts 146°
2026-05-07 13:32 45.64678 11.02696 28169 ft 495 kts 136°
2026-05-07 13:32 45.62615 11.06671 27051 ft 501 kts 126°
2026-05-07 13:32 45.60732 11.10881 26027 ft 502 kts 126°
2026-05-07 13:32 45.58853 11.15072 25028 ft 500 kts 126°
2026-05-07 13:33 45.56978 11.19251 24068 ft 499 kts 126°
2026-05-07 13:33 45.55115 11.23400 23045 ft 496 kts 126°
2026-05-07 13:33 45.53257 11.27532 21957 ft 494 kts 125°
2026-05-07 13:33 45.51413 11.31623 20881 ft 482 kts 125°
2026-05-07 13:34 45.49636 11.35563 19876 ft 463 kts 125°
2026-05-07 13:34 45.46257 11.43026 17909 ft 435 kts 124°
2026-05-07 13:34 45.44638 11.46597 16839 ft 424 kts 124°
2026-05-07 13:35 45.43053 11.50074 15809 ft 413 kts 126°
2026-05-07 13:35 45.41253 11.53185 14816 ft 402 kts 134°
2026-05-07 13:35 45.39401 11.56111 13844 ft 395 kts 134°
2026-05-07 13:35 45.37575 11.58987 12786 ft 387 kts 134°
2026-05-07 13:36 45.35898 11.61935 11754 ft 381 kts 123°
2026-05-07 13:36 45.34854 11.65343 11041 ft 370 kts 105°
2026-05-07 13:36 45.34528 11.68820 10836 ft 344 kts 90°
2026-05-07 13:36 45.34626 11.72151 10377 ft 332 kts 87°
2026-05-07 13:37 45.34762 11.75411 10136 ft 330 kts 86°
2026-05-07 13:37 45.34904 11.78591 9973 ft 313 kts 86°
2026-05-07 13:37 45.34848 11.81635 9953 ft 307 kts 100°
2026-05-07 13:37 45.34251 11.84536 9773 ft 306 kts 116°
2026-05-07 13:38 45.33128 11.87084 9365 ft 301 kts 133°
2026-05-07 13:38 45.31711 11.89187 9218 ft 288 kts 144°
2026-05-07 13:38 45.29980 11.90347 9086 ft 269 kts 174°
2026-05-07 13:38 45.28186 11.90201 8937 ft 254 kts 202°
2026-05-07 13:39 45.26686 11.88960 8872 ft 250 kts 223°
2026-05-07 13:39 45.25374 11.87320 8825 ft 251 kts 224°
2026-05-07 13:39 45.24068 11.85676 8711 ft 251 kts 224°
2026-05-07 13:39 45.22764 11.84032 8573 ft 251 kts 224°
2026-05-07 13:40 45.21460 11.82393 8453 ft 250 kts 223°
2026-05-07 13:40 45.20154 11.80755 8323 ft 250 kts 223°
2026-05-07 13:40 45.18808 11.79281 8189 ft 245 kts 210°
2026-05-07 13:40 45.17184 11.78623 8063 ft 239 kts 185°
2026-05-07 13:41 45.15583 11.78982 7937 ft 239 kts 160°
2026-05-07 13:41 45.14211 11.80304 7786 ft 240 kts 135°
2026-05-07 13:41 45.13359 11.82346 7471 ft 246 kts 108°
2026-05-07 13:41 45.13218 11.84755 7149 ft 249 kts 80°
2026-05-07 13:42 45.13843 11.87021 6836 ft 249 kts 53°
2026-05-07 13:42 45.15033 11.88780 6521 ft 248 kts 41°
2026-05-07 13:42 45.16301 11.90450 6202 ft 249 kts 41°
2026-05-07 13:42 45.17568 11.92121 5866 ft 250 kts 41°
2026-05-07 13:43 45.18841 11.93808 5537 ft 251 kts 41°
2026-05-07 13:43 45.20112 11.95498 5210 ft 251 kts 41°
2026-05-07 13:43 45.21385 11.97195 4885 ft 251 kts 41°
2026-05-07 13:43 45.22658 11.98894 4548 ft 251 kts 41°
2026-05-07 13:44 45.23949 12.00621 4218 ft 251 kts 42°
2026-05-07 13:44 45.25099 12.02442 3889 ft 251 kts 49°
2026-05-07 13:44 45.26292 12.04237 3548 ft 247 kts 43°
2026-05-07 13:44 45.27536 12.05843 3212 ft 238 kts 41°
2026-05-07 13:45 45.28748 12.07369 3011 ft 226 kts 41°
2026-05-07 13:45 45.29876 12.08799 3004 ft 210 kts 41°
2026-05-07 13:45 45.30919 12.10125 3023 ft 194 kts 42°
2026-05-07 13:45 45.31903 12.11379 2999 ft 181 kts 42°
2026-05-07 13:46 45.32808 12.12531 2997 ft 168 kts 41°
2026-05-07 13:46 45.33681 12.13643 3007 ft 169 kts 41°
2026-05-07 13:46 45.34558 12.14762 3006 ft 170 kts 41°
2026-05-07 13:46 45.35438 12.15883 3008 ft 170 kts 41°
2026-05-07 13:47 45.36319 12.17008 3002 ft 171 kts 41°
2026-05-07 13:47 45.37206 12.18140 3006 ft 171 kts 41°
2026-05-07 13:47 45.38089 12.19268 2914 ft 169 kts 41°
2026-05-07 13:47 45.38970 12.20393 2733 ft 171 kts 41°
2026-05-07 13:48 45.39851 12.21519 2513 ft 168 kts 41°
2026-05-07 13:48 45.40689 12.22590 2306 ft 160 kts 41°
2026-05-07 13:48 45.41513 12.23645 2091 ft 155 kts 41°
2026-05-07 13:48 45.42291 12.24640 1887 ft 152 kts 42°
2026-05-07 13:49 45.43089 12.25662 1684 ft 151 kts 42°
2026-05-07 13:49 45.43869 12.26660 1470 ft 153 kts 41°
2026-05-07 13:49 45.44657 12.27670 1281 ft 153 kts 42°
2026-05-07 13:49 45.45430 12.28680 1065 ft 149 kts 43°
2026-05-07 13:50 45.46202 12.29675 930 ft 149 kts 43°
2026-05-07 13:50 45.46971 12.30713 716 ft 163 kts 46°
2026-05-07 13:50 45.47816 12.31739 517 ft 154 kts 40°
2026-05-07 13:50 45.48598 12.32728 292 ft 146 kts 46°
2026-05-07 13:51 45.49349 12.33690 87 ft 144 kts 45°
2026-05-07 13:51 45.50061 12.34613 17 ft 126 kts 44°
2026-05-07 13:51 45.50582 12.35281 14 ft 76 kts 42°
2026-05-07 13:51 45.50881 12.35660 18 ft 46 kts 42°
2026-05-07 13:52 45.51051 12.35826 15 ft 22 kts 10°
2026-05-07 13:52 45.51198 12.35875 14 ft 21 kts
2026-05-07 13:52 45.51230 12.35763 16 ft 14 kts 232°
2026-05-07 13:52 45.51160 12.35666 16 ft 14 kts 220°
2026-05-07 13:53 45.51081 12.35565 16 ft 16 kts 222°
2026-05-07 13:53 45.51002 12.35445 18 ft 17 kts 243°
2026-05-07 13:53 45.50966 12.35275 17 ft 19 kts 262°
2026-05-07 13:53 45.50888 12.35116 16 ft 21 kts 222°
2026-05-07 13:54 45.50774 12.34972 17 ft 23 kts 221°
2026-05-07 13:54 45.50652 12.34816 16 ft 24 kts 223°
2026-05-07 13:54 45.50602 12.34675 16 ft 24 kts 263°
2026-05-07 13:54 45.50596 12.34428 16 ft 25 kts 272°
2026-05-07 13:55 45.50691 12.34253 16 ft 21 kts 311°
2026-05-07 13:55 45.50755 12.34154 16 ft 10 kts 313°
2026-05-07 13:55 45.50738 12.34083 16 ft 8 kts 219°
2026-05-07 13:55 45.50714 12.34053 16 ft 0 kts 222°